Temperature
15 14 14 14 14 14 15 15 14 14 15 15 15 15 15 15 14 14 14 14 14 14 14 14 14 14 14 14 14 14 14 14 14 14 14 14 14 14
14 14 14 14 14 14 14 14 14 14 14 15 15 15 15 15 14 14 14 14 14 14 14 14 14 13 13 13 13 14 14 14 14 14 14 14 14 14
14 14 14 14 14 14 14 14 14 14 14 15 15 15 15 15 14 14 14 14 14 14 14 14 14 14 14 13 13 13 13 13 13 13 13 14 14 14
15 14 14 14 14 14 14 14 14 14 14 14 15 15 15 15 15 14 14 14 14 14 14 14 14 14 14 14 14 13 13 13 13 13 13 13 13 13
15 14 14 14 14 14 14 14 14 14 14 14 14 15 15 15 14 15 15 14 14 14 14 14 14 14 14 14 14 14 13 13 13 13 13 13 13 13
14 14 14 14 14 14 14 14 14 14 14 14 14 14 14 14 14 14 14 15 14 14 14 14 14 14 14 14 14 14 14 13 13 13 13 13 13 13
14 14 14 14 14 14 14 14 13 13 13 13 13 14 14 14 14 14 14 14 14 14 14 14 14 14 14 14 14 14 14 14 13 13 13 13 13 13
14 14 14 14 14 14 13 13 13 13 13 13 13 13 13 13 13 13 13 13 13 14 14 14 14 14 14 14 14 14 14 13 13 13 13 13 13 13
13 13 13 13 13 13 13 13 13 12 12 12 12 12 12 12 12 12 12 12 12 12 12 12 13 13 14 14 14 13 13 13 13 13 13 13 13 13
13 13 12 12 12 12 12 12 12 12 12 11 11 12 11 11 11 11 11 11 11 12 11 11 12 12 13 13 13 13 13 13 13 13 13 13 13 13
12 11 11 11 11 11 11 11 11 11 11 11 11 11 11 11 10 10 10 10 10 11 11 11 11 11 11 12 12 13 12 12 12 12 13 13 13 12
11 10 10 10 10 10 10 10 10 10 10 10 10 10 10 10 10 10 9 9 9 9 10 10 10 9 9 10 11 12 12 12 12 12 12 12 12 12
10 9 9 9 9 9 9 9 9 9 9 9 9 9 9 9 9 9 9 8 8 8 8 8 8 8 8 8 9 10 10 11 11 11 11 12 12 11
9 9 9 8 8 8 8 8 8 7 7 7 7 7 8 8 8 8 8 8 7 7 7 7 7 7 7 7 7 8 9 9 10 10 10 11 11 11
8 7 7 7 7 7 7 6 6 6 6 6 6 6 6 6 6 7 7 7 7 7 7 7 7 7 7 7 7 7 8 8 9 9 9 10 10 10
7 7 6 6 6 6 6 6 5 5 5 5 5 5 5 5 6 6 6 6 6 7 7 7 6 6 6 6 6 6 7 7 8 8 9 9 9 10
5 5 5 5 5 5 5 5 5 5 4 4 4 4 4 4 4 5 5 5 5 5 5 6 6 6 6 6 6 6 6 7 7 8 8 8 8 9
4 4 4 4 4 4 4 4 4 4 3 3 3 3 3 3 3 4 4 4 4 4 4 5 5 5 6 6 6 6 6 6 7 7 7 7 7 8
4 3 3 3 3 3 3 3 3 3 2 2 2 2 3 3 3 3 3 3 3 3 3 4 4 4 4 4 5 5 5 5 6 6 7 7 7 8
3 2 2 2 2 2 2 2 2 2 2 2 2 2 2 2 2 2 2 2 3 3 3 3 4 4 4 4 4 5 5 5 5 6 6 6 7 7
2 2 1 1 1 1 1 1 1 1 1 1 1 1 1 1 2 2 2 2 2 2 2 3 3 4 4 4 4 4 5 5 5 5 6 6 6 7
1 1 1 1 1 1 1 1 1 1 1 1 1 1 1 1 1 1 2 2 2 2 2 3 3 4 4 3 4 4 4 5 6 6 6 6 6 6
0 0 0 0 0 0 0 0 0 0 0 1 1 1 1 1 1 1 1 1 2 2 2 2 3 3 4 4 4 4 4 5 5 6 6 7 7 7
Wind_Speed
3 3 2 2 2 2 2 3 3 2 2 2 2 2 3 5 7 7 9 10 11 12 12 12 12 13 13 12 12 13 13 13 13 13 13 13 13 13
3 4 3 2 2 2 2 2 2 3 3 2 3 2 3 4 6 7 9 12 13 14 15 16 16 16 16 16 16 15 15 15 15 15 15 15 15 14
5 5 5 4 3 3 3 3 3 3 4 4 3 3 3 4 5 6 8 10 11 15 17 18 19 19 19 19 19 18 18 18 17 17 17 17 17 16
7 7 7 5 5 5 4 5 4 5 5 6 4 3 5 5 5 5 7 9 10 14 17 19 20 21 21 21 21 21 20 20 20 20 19 19 19 18
8 8 8 7 7 6 6 6 5 6 6 6 6 4 4 4 4 5 6 7 10 12 16 18 20 22 22 22 23 22 22 22 21 22 21 21 21 20
8 9 8 8 9 8 7 8 7 6 6 6 7 6 6 5 4 5 7 5 6 8 11 14 16 19 21 22 23 23 23 23 23 23 23 23 23 23
7 7 8 8 9 8 7 7 7 6 6 7 7 7 7 5 6 5 7 8 8 6 7 8 9 10 13 16 19 22 23 24 24 24 24 24 25 24
6 5 5 5 6 7 8 8 7 7 8 7 8 9 10 8 7 7 7 8 8 4 4 7 6 9 10 13 17 20 22 23 24 25 25 25 26 26
2 1 1 1 1 2 4 4 4 6 7 7 9 10 9 7 7 9 8 9 11 8 7 11 10 12 12 15 19 22 24 25 25 25 26 26 26 26
3 2 2 3 4 3 3 3 4 4 4 4 6 8 8 7 7 8 10 10 11 9 8 11 12 13 12 14 19 23 25 26 26 27 27 27 27 27
4 5 4 3 5 5 3 4 5 5 5 7 8 11 13 14 11 7 7 8 10 10 7 8 10 12 13 13 15 21 25 26 27 27 27 27 27 25
3 3 4 3 5 5 3 3 6 7 7 9 8 9 9 11 11 8 8 9 9 8 6 6 9 8 9 9 10 12 14 19 23 26 26 27 26 19
2 3 3 6 6 6 4 4 6 8 7 7 8 8 7 6 7 7 7 8 10 9 7 6 9 10 11 12 11 11 11 12 14 16 20 24 25 20
2 3 4 7 7 7 5 6 9 7 5 5 6 7 7 7 8 8 10 11 11 13 13 12 10 12 13 16 14 11 12 12 12 13 13 16 19 23
3 5 6 7 7 6 7 8 7 5 4 5 6 7 7 8 9 8 10 10 12 14 15 14 13 13 13 15 15 14 14 13 12 13 13 13 13 11
4 6 7 7 6 6 7 6 5 5 5 6 7 8 8 8 8 8 9 9 10 11 11 13 13 13 14 15 14 15 14 12 12 13 13 14 13 13
4 3 4 5 7 7 7 7 7 7 6 7 7 8 9 9 9 9 8 9 10 11 12 11 11 11 13 14 14 15 15 15 15 14 13 15 16 15
4 4 5 6 7 8 8 9 8 8 8 9 9 9 9 10 10 10 9 10 11 12 12 12 11 11 11 11 13 15 15 15 14 13 14 15 17 15
5 5 6 7 7 8 8 8 9 10 9 9 10 10 10 10 10 11 11 11 12 12 12 11 11 11 14 16 12 12 14 14 14 14 14 14 17 16
5 6 7 7 8 8 9 9 9 10 9 10 10 10 10 11 11 11 11 12 12 13 13 12 11 11 13 16 15 15 15 16 15 15 15 14 15 15
7 7 7 8 8 9 9 9 10 10 11 10 10 11 11 11 12 12 12 14 13 13 14 14 13 15 13 11 12 14 14 15 17 15 15 14 14 14
7 7 8 8 8 9 9 9 10 10 11 10 11 11 11 11 13 14 13 13 12 13 15 14 14 12 11 13 15 17 17 15 14 18 20 18 13 12
7 8 8 8 9 9 9 10 11 10 10 11 11 11 12 12 12 12 13 13 13 14 14 14 13 11 12 12 14 14 17 17 13 12 13 15 20 23
Wind_Direction
190 188 192 198 188 186 173 166 162 210 265 278 288 297 275 256 255 249 249 254 255 254 254 255 257 258 259 260 262 263 263 263 263 263 264 264 264 263
200 198 208 215 205 194 190 186 180 184 231 259 260 278 289 281 266 253 256 261 262 261 261 261 261 261 261 261 261 262 261 261 260 260 260 261 262 263
210 210 221 210 210 206 195 192 194 188 227 262 248 262 267 271 276 267 263 260 263 263 263 263 263 262 261 261 260 260 260 259 259 258 258 258 258 258
221 218 228 219 219 217 209 211 212 208 221 257 264 254 250 257 264 268 268 263 259 264 264 263 263 262 261 260 259 259 258 257 257 256 255 254 254 255
223 222 229 221 229 227 223 225 226 222 219 240 262 256 260 258 268 273 270 267 266 265 264 262 261 260 260 259 258 258 257 256 255 255 254 253 252 253
230 230 232 227 233 234 233 234 233 233 230 240 259 264 263 259 252 268 279 269 270 272 265 263 260 260 259 258 257 256 255 254 254 253 252 252 251 251
237 237 239 236 237 236 239 239 233 239 244 249 261 269 270 262 260 258 273 284 280 262 266 265 261 261 263 260 256 254 253 252 252 251 250 250 250 249
243 244 244 247 253 247 246 241 230 238 248 252 261 265 272 270 269 266 274 282 286 257 247 272 264 266 265 260 256 254 254 253 251 250 249 249 248 248
253 260 276 348 332 295 287 281 269 261 250 254 263 268 276 280 280 277 268 266 269 271 273 281 274 272 269 264 257 255 255 255 253 251 250 249 248 247
52 57 60 32 19 3 343 338 325 313 294 272 264 273 278 283 276 274 277 277 272 266 253 271 276 273 274 268 259 255 254 254 254 253 251 250 248 247
47 50 56 42 15 18 18 345 325 314 309 305 295 288 289 288 284 281 275 274 278 277 251 258 275 279 278 272 264 255 253 254 254 254 253 251 250 248
33 36 42 22 2 6 360 330 312 308 314 314 308 304 298 292 286 266 264 270 275 279 260 253 275 283 283 272 266 267 265 261 257 255 253 252 250 249
12 354 350 351 352 350 336 302 293 301 305 303 303 303 302 295 290 279 263 260 268 269 271 269 277 276 273 280 280 277 272 272 270 264 257 251 248 240
355 337 330 338 342 340 334 319 316 315 308 308 308 305 305 304 301 295 284 272 262 265 271 268 269 271 275 278 280 278 273 271 269 269 267 260 251 242
348 339 341 345 344 343 336 332 333 331 323 316 310 306 302 299 301 302 299 292 284 276 272 266 263 268 267 270 276 277 278 276 269 265 264 262 259 253
352 347 350 354 353 338 336 339 338 327 316 310 307 304 305 304 302 304 304 306 301 296 288 280 272 269 270 270 271 274 272 270 268 266 265 264 261 254
342 352 359 352 349 345 340 336 333 331 325 318 311 309 307 304 302 303 297 297 293 294 297 296 289 278 269 270 272 271 271 270 268 267 265 266 263 257
16 359 348 343 338 334 330 328 327 325 322 317 312 308 306 304 302 300 296 293 292 291 291 293 296 295 289 275 248 265 270 271 272 268 265 266 267 262
16 354 344 337 333 329 325 322 320 320 318 314 311 309 306 304 303 300 297 294 292 290 289 289 286 284 285 286 277 245 267 276 276 272 267 261 264 265
2 348 339 333 330 328 325 322 319 318 316 315 312 309 306 304 301 298 296 294 294 293 290 287 281 276 276 282 286 282 261 266 272 272 271 269 267 266
347 339 333 330 328 326 324 321 318 314 312 312 309 307 306 304 301 299 297 293 291 290 290 289 286 282 281 281 279 277 274 255 251 261 269 270 270 267
338 333 330 327 326 323 322 320 318 316 313 311 309 307 305 302 299 298 297 296 294 292 292 290 290 287 279 274 276 281 285 283 267 252 249 247 256 257
333 329 326 326 325 323 320 318 317 314 313 312 311 308 305 303 299 296 294 294 293 293 295 295 294 287 280 275 276 279 282 285 284 282 274 255 244 249
Height
1560 1561 1562 1562 1563 1563 1564 1564 1565 1564 1564 1564 1565 1566 1566 1567 1567 1567 1567 1567 1567 1566 1566 1565 1565 1564 1564 1564 1563 1563 1563 1564 1564 1565 1565 1566 1566 1567
1558 1559 1560 1560 1561 1561 1561 1562 1562 1562 1562 1562 1562 1563 1563 1563 1564 1564 1564 1563 1563 1563 1562 1562 1561 1560 1560 1559 1559 1559 1559 1559 1559 1559 1559 1560 1560 1561
1556 1556 1557 1557 1558 1558 1558 1559 1559 1559 1558 1558 1559 1559 1559 1560 1560 1560 1559 1559 1559 1558 1558 1557 1556 1556 1555 1555 1554 1554 1554 1554 1554 1553 1553 1554 1554 1554
1553 1553 1554 1554 1554 1555 1555 1555 1555 1555 1555 1554 1554 1555 1555 1555 1555 1555 1555 1554 1554 1553 1553 1552 1551 1551 1550 1550 1550 1549 1549 1548 1548 1548 1548 1548 1548 1548
1549 1549 1550 1550 1550 1551 1551 1551 1551 1551 1551 1550 1549 1550 1550 1550 1550 1549 1549 1548 1548 1548 1547 1546 1546 1545 1545 1544 1544 1544 1543 1543 1543 1542 1542 1542 1542 1541
1545 1545 1545 1546 1546 1546 1546 1546 1547 1547 1546 1545 1544 1544 1544 1544 1544 1543 1542 1542 1541 1541 1540 1540 1539 1539 1538 1538 1538 1537 1537 1537 1537 1536 1536 1536 1535 1535
1540 1540 1541 1541 1541 1542 1542 1542 1542 1541 1541 1540 1539 1538 1538 1538 1537 1536 1535 1534 1533 1533 1532 1532 1532 1531 1531 1530 1530 1530 1530 1530 1529 1529 1529 1529 1529 1528
1535 1535 1535 1535 1536 1536 1536 1536 1536 1536 1535 1534 1533 1532 1531 1531 1530 1529 1528 1526 1524 1525 1524 1523 1523 1522 1522 1522 1522 1522 1521 1521 1521 1521 1521 1521 1520 1520
1529 1529 1529 1529 1530 1530 1530 1530 1529 1529 1529 1528 1527 1525 1525 1524 1523 1521 1520 1518 1516 1516 1515 1512 1513 1512 1512 1512 1512 1512 1512 1511 1511 1511 1511 1511 1511 1511
1524 1524 1524 1524 1524 1523 1523 1523 1523 1523 1522 1521 1520 1519 1518 1517 1516 1514 1512 1509 1507 1508 1507 1503 1502 1502 1501 1501 1501 1501 1501 1501 1501 1501 1501 1501 1501 1502
1519 1519 1519 1519 1518 1518 1517 1516 1516 1516 1516 1514 1513 1512 1510 1510 1508 1506 1504 1501 1498 1497 1498 1495 1492 1491 1489 1488 1489 1490 1490 1490 1489 1489 1489 1490 1490 1491
1516 1516 1515 1514 1513 1512 1510 1510 1509 1508 1508 1506 1505 1504 1502 1501 1500 1498 1495 1493 1489 1487 1487 1487 1484 1482 1478 1476 1478 1478 1478 1478 1478 1478 1478 1478 1479 1479
1513 1512 1511 1510 1509 1507 1505 1504 1502 1501 1499 1497 1496 1495 1493 1492 1491 1489 1487 1485 1482 1479 1479 1479 1475 1474 1471 1466 1466 1467 1466 1466 1466 1465 1466 1466 1467 1468
1510 1509 1508 1506 1504 1502 1501 1499 1497 1495 1493 1491 1489 1487 1485 1483 1482 1480 1479 1477 1474 1472 1471 1470 1467 1465 1462 1458 1455 1455 1456 1455 1455 1454 1454 1454 1455 1456
1507 1506 1504 1502 1500 1498 1496 1494 1492 1490 1487 1485 1482 1480 1479 1476 1474 1472 1470 1468 1465 1464 1462 1461 1459 1456 1454 1449 1446 1445 1445 1444 1444 1443 1443 1443 1443 1443
1504 1502 1500 1498 1496 1494 1492 1489 1487 1485 1482 1479 1477 1474 1472 1470 1468 1465 1462 1460 1456 1454 1454 1452 1450 1447 1443 1441 1438 1435 1435 1433 1433 1433 1432 1431 1431 1431
1501 1499 1496 1494 1491 1489 1487 1485 1482 1480 1477 1474 1471 1468 1466 1463 1461 1459 1456 1452 1449 1445 1443 1442 1441 1438 1435 1432 1428 1426 1424 1423 1423 1422 1421 1418 1418 1419
1498 1495 1492 1490 1487 1484 1482 1479 1477 1474 1471 1468 1465 1462 1460 1457 1454 1451 1449 1445 1442 1438 1436 1433 1431 1428 1424 1421 1420 1417 1415 1413 1412 1412 1410 1407 1405 1406
1494 1491 1489 1486 1483 1480 1477 1474 1471 1468 1465 1463 1460 1457 1454 1450 1447 1444 1441 1438 1434 1431 1428 1426 1423 1420 1416 1410 1408 1410 1407 1403 1402 1400 1399 1397 1394 1394
1491 1488 1485 1482 1479 1476 1473 1469 1466 1463 1460 1457 1454 1451 1448 1444 1441 1437 1434 1431 1427 1423 1420 1418 1415 1412 1409 1404 1399 1397 1397 1395 1392 1390 1388 1386 1384 1383
1488 1485 1482 1478 1475 1472 1468 1465 1462 1458 1455 1451 1448 1445 1442 1438 1434 1431 1427 1423 1420 1416 1412 1409 1406 1404 1400 1396 1390 1385 1386 1385 1383 1381 1378 1376 1374 1372
1485 1482 1478 1475 1472 1468 1464 1461 1457 1453 1450 1446 1443 1439 1436 1432 1428 1424 1420 1416 1412 1409 1405 1401 1398 1395 1392 1387 1382 1378 1375 1374 1372 1370 1369 1367 1365 1362
1482 1479 1475 1472 1468 1464 1460 1456 1453 1449 1445 1441 1437 1433 1429 1425 1421 1417 1413 1409 1405 1401 1397 1393 1389 1386 1383 1380 1376 1371 1368 1365 1362 1360 1358 1356 1355 1354